Location: Cazavet
(43.0017°N, 1.0431°E)
Time: 21:37:43
(UTC+00:00)

GRACE-FO 2 - Pass Details

Date: 18 January 2026
Orbit: 448 x 461 km, 89.0° (Epoch: 12 February)

Event Time Altitude Azimuth Distance (km) Brightness Sun altitude
Rises 06:50:15 0° 186° (S) 2,447 8.4 -6.2°
Reaches altitude 10° 06:52:19 10° 190° (S) 1,582 7.3 -5.9°
Maximum altitude 06:55:42 59° 271° (W) 532 4.5 -5.3°
Drops below altitude 10° 06:59:07 10° 352° (N) 1,604 6.9 -4.7°
Sets 07:01:13 0° 356° (N) 2,486 7.9 -4.4°
